Skagway, AK

3:49 AM AKDT on August 19, 2017 (GMT -0800)
Skagway

Weather History for PAGY - November, 2013

Change the Weather History Date:

Monday, November 4, 2013

  Actual Average Record
Temperature  
Mean Temperature 32 °F -  
Max Temperature 37 °F 39 °F 52 °F (1970)
Min Temperature 28 °F 31 °F 12 °F (1971)
Degree Days  
Heating Degree Days 32    
Moisture  
Dew Point 30 °F    
Average Humidity 87    
Maximum Humidity 100    
Minimum Humidity 70    
Precipitation  
Precipitation 0.14 in - - ()
Sea Level Pressure  
Sea Level Pressure 29.68 in    
Wind  
Wind Speed 1 mph (NE)    
Max Wind Speed 4 mph    
Max Gust Speed -    
Visibility 7 miles    
Events Rain , Snow    
Averages and records for this station are not official NWS values.
T = Trace of Precipitation, MM = Missing Value Source: NWS Daily Summary

Daily Weather History Graph

Daily Weather History Graph

Search for Another Location

Airport or City:

Trip Planner

Search our weather history database for the weather conditions in past years. The results will help you decide how hot, cold, wet, or windy it might be!

Date:

Astronomy

Nov. 04, 2013 Rise Set
Actual Time 7:29 AM AKST 3:58 PM AKST
Civil Twilight 6:44 AM AKST 4:44 PM AKST
Nautical Twilight 5:55 AM AKST 5:33 PM AKST
Astronomical Twilight 5:07 AM AKST 6:20 PM AKST
Moon 9:07 AM AKST (11/4) 4:49 PM AKST (11/4)
Length of Visible Light 9h 59m
Length of Day
8h 29m
New Moon, 2% of the Moon is Illuminated
Nov 4
New Moon
Nov 9
First Quarter
Nov 17
Full
Nov 25
Last Quarter
Dec 2
New

Hourly Weather History & Observations

Time (AKST) Temp. Windchill Dew Point Humidity Pressure Visibility Wind Dir Wind Speed Gust Speed Precip Events Conditions
12:53 AM 28.0 °F 24.2 °F 26.1 °F 92% 29.94 in 10.0 mi NE 3.5 mph - N/A   Clear
1:53 AM 28.0 °F - 25.0 °F 88% 29.90 in 10.0 mi Calm Calm - N/A   Clear
3:53 AM 28.9 °F 25.2 °F 26.1 °F 89% 29.83 in 10.0 mi ENE 3.5 mph - N/A   Overcast
4:53 AM 30.0 °F 26.5 °F 27.0 °F 88% 29.81 in 10.0 mi NNE 3.5 mph - N/A   Mostly Cloudy
5:53 AM 30.0 °F 26.5 °F 27.0 °F 88% 29.78 in 10.0 mi NE 3.5 mph - N/A   Overcast
6:53 AM 30.9 °F - 28.0 °F 89% 29.74 in 9.0 mi Calm Calm - N/A   Overcast
7:53 AM 32.0 °F - 28.9 °F 88% 29.72 in 10.0 mi Calm Calm - N/A   Overcast
8:53 AM 33.1 °F - 30.0 °F 89% 29.69 in 10.0 mi Calm Calm - N/A   Overcast
9:53 AM 37.9 °F 35.5 °F 30.0 °F 73% 29.69 in 10.0 mi North 3.5 mph - N/A   Overcast
10:53 AM 37.9 °F 35.5 °F 28.9 °F 70% 29.67 in 10.0 mi East 3.5 mph - N/A   Overcast
11:53 AM 37.9 °F 35.5 °F 28.9 °F 70% 29.67 in 10.0 mi Variable 3.5 mph - N/A   Overcast
12:53 PM 37.0 °F - 30.0 °F 76% 29.66 in 10.0 mi Calm Calm - 0.00 in   Overcast
1:21 PM 37.4 °F - 30.2 °F 75% 29.66 in 8.0 mi Calm Calm - 0.00 in Rain Light Rain
1:53 PM 36.0 °F - 30.9 °F 82% 29.66 in 5.0 mi Calm Calm - 0.02 in Snow Light Snow
2:15 PM 35.6 °F - 30.2 °F 81% 29.65 in 10.0 mi Calm Calm - 0.00 in   Overcast
2:53 PM 35.1 °F - 30.9 °F 85% 29.63 in 10.0 mi Calm Calm - 0.00 in   Overcast
3:23 PM 35.6 °F - 32.0 °F 87% 29.63 in 5.0 mi Calm Calm - 0.01 in Snow Light Snow
3:53 PM 35.1 °F - 32.0 °F 89% 29.63 in 10.0 mi Calm Calm - 0.01 in   Overcast
4:53 PM 35.1 °F - 32.0 °F 89% 29.63 in 9.0 mi Calm Calm - 0.01 in   Overcast
5:32 PM 35.6 °F - 32.0 °F 87% 29.63 in 4.0 mi Calm Calm - 0.00 in Snow Light Snow
5:46 PM 33.8 °F - 30.2 °F 87% 29.62 in 2.5 mi Calm Calm - 0.01 in Snow Light Snow
5:51 PM 33.8 °F - 30.2 °F 87% 29.63 in 3.0 mi Calm Calm - 0.01 in Snow Light Snow
5:53 PM 34.0 °F - 30.9 °F 89% 29.63 in 4.0 mi Calm Calm - 0.01 in Snow Light Snow
6:53 PM 34.0 °F - 30.9 °F 89% 29.62 in 3.0 mi Calm Calm - 0.03 in Snow Light Snow
7:12 PM 33.8 °F - 30.2 °F 87% 29.63 in 7.0 mi Calm Calm - 0.01 in Rain Light Rain
7:53 PM 34.0 °F - 32.0 °F 92% 29.64 in 4.0 mi Calm Calm - 0.02 in Snow Light Snow
8:08 PM 33.8 °F 30.8 °F 32.0 °F 93% 29.64 in 4.0 mi NNE 3.5 mph - 0.00 in   Overcast
8:48 PM 33.8 °F - 32.0 °F 93% 29.62 in 3.0 mi Calm Calm - 0.01 in Snow Light Snow
8:53 PM 34.0 °F - 32.0 °F 92% 29.64 in 3.0 mi Calm Calm - 0.01 in Snow Light Snow
9:18 PM 33.8 °F - 32.0 °F 93% 29.64 in 5.0 mi Calm Calm - 0.01 in Snow Light Snow
9:25 PM 33.8 °F - 32.0 °F 93% 29.64 in 4.0 mi Calm Calm - 0.01 in Snow Light Snow
9:53 PM 34.0 °F - 32.0 °F 92% 29.63 in 4.0 mi Calm Calm - 0.03 in Rain Light Rain
10:18 PM 33.8 °F - 33.8 °F 100% 29.63 in 9.0 mi Calm Calm - 0.00 in   Overcast
10:53 PM 34.0 °F - 33.1 °F 96% 29.64 in 10.0 mi Calm Calm - 0.00 in   Overcast
11:11 PM 33.8 °F 30.8 °F 32.0 °F 93% 29.64 in 7.0 mi NE 3.5 mph - N/A   Overcast
11:20 PM 33.8 °F 30.8 °F 32.0 °F 93% 29.63 in 5.0 mi North 3.5 mph - N/A   Overcast
11:53 PM 34.0 °F - 32.0 °F 92% 29.64 in 5.0 mi Calm Calm - 0.00 in   Overcast